STARLINK-5548 (56334 NORAD) Tracking and Keplerian Element Data

This shows tracking and keplerian element data for the satellite.

Feedback or suggestion? Click here.




ElementValue
Catalog56334
NameSTARLINK-5548
Epoch Orbit184
Epoch Day127.25001157
Epoch Year2023
RAAN126.7441
Inclination97.6626
Eccentricity0.0001454
Argument of Perigee102.4479
Mean Anonmoly195.1911
Mean Motion15.67583731
Decay Rate-0.00779788
L11 56334U 23058T 23127.25001157 -.00779788 00000+0 -78830-2 0 9990
L22 56334 97.6626 126.7441 0001454 102.4479 195.1911 15.67583731 1841



Live tracking and technical data element details for STARLINK-5548 (NORAD 56334). STARLINK-5548 can be tracked NOW for your location showing map with azimuth and elevation plus other details from your city location.







IsCatalogInMostPopularTable: catalog: 56334, numindb: 4
Update: records affected: 1



GetName: 56334 STARLINK-5548

Hit Count: updated at: Wed, 07 Jun 2023 09:17:41 GMT